Location: Winthrop
(48.4780°N, 120.1850°W)
Time: 21:19:08
(UTC-08:00)

S-56A Canister/Altair - All Passes

Search period start: 29 January 2023 00:00
Search period end: 08 February 2023 00:00
Orbit: 639 x 2493 km, 38.9° (Epoch: 29 January)

Date Brightness Start Highest point End Pass type
(mag) Time Alt. Az. Time Alt. Az. Time Alt. Az.
29 Jan - 12:16:59 10° SSW 12:21:08 23° SSE 12:26:25 10° ESE daylight
29 Jan - 14:18:19 10° WSW 14:24:02 40° S 14:32:21 10° ESE daylight
29 Jan - 16:21:01 10° WSW 16:27:51 37° SSW 16:37:35 10° SE daylight
29 Jan - 18:25:22 10° WSW 18:31:55 21° SSW 18:40:08 10° S visible
30 Jan - 11:45:01 10° SSW 11:48:37 19° SSE 11:52:57 10° ESE daylight
30 Jan - 13:46:01 10° WSW 13:51:20 38° S 13:58:54 10° ESE daylight
30 Jan - 15:48:34 10° WSW 15:54:57 37° S 16:04:07 10° SE daylight
30 Jan - 17:52:35 10° WSW 17:58:57 22° SSW 18:07:04 10° SSE visible
31 Jan - 11:13:11 10° S 11:16:07 16° SSE 11:19:28 10° ESE daylight
31 Jan - 13:13:45 10° SW 13:18:41 35° SSE 13:25:30 10° ESE daylight
31 Jan - 15:16:09 10° WSW 15:22:08 36° S 15:30:41 10° SE daylight
31 Jan - 17:19:53 10° WSW 17:25:59 23° SSW 17:33:57 10° SSE visible
01 Feb - 10:41:35 10° S 10:43:38 12° SE 10:45:51 10° ESE daylight
01 Feb - 12:41:30 10° SW 12:46:05 32° SSE 12:52:11 10° ESE daylight
01 Feb - 14:43:47 10° WSW 14:49:21 36° S 14:57:17 10° SE daylight
01 Feb - 16:47:16 10° WSW 16:53:06 23° SSW 17:00:47 10° SSE daylight
02 Feb - 12:09:16 10° SW 12:13:31 28° SSE 12:18:57 10° ESE daylight
02 Feb - 14:11:25 10° WSW 14:16:38 35° S 14:23:57 10° ESE daylight
02 Feb - 16:14:43 10° WSW 16:20:15 24° SSW 16:27:37 10° SSE daylight
03 Feb - 11:37:03 10° SW 11:40:59 25° SSE 11:45:47 10° ESE daylight
03 Feb - 13:39:04 10° WSW 13:43:58 34° S 13:50:40 10° ESE daylight
03 Feb - 15:42:12 10° WSW 15:47:26 24° SSW 15:54:26 10° SSE daylight
04 Feb - 11:04:52 10° SSW 11:08:28 22° SSE 11:12:39 10° ESE daylight
04 Feb - 13:06:44 10° WSW 13:11:19 33° S 13:17:27 10° ESE daylight
04 Feb - 15:09:44 10° WSW 15:14:41 25° SSW 15:21:16 10° SSE daylight
04 Feb - 17:17:05 10° SW 17:18:15 10° SSW 17:19:28 10° SSW daylight
05 Feb - 10:32:42 10° SSW 10:35:58 19° SSE 10:39:36 10° ESE daylight
05 Feb - 12:34:24 10° WSW 12:38:44 31° S 12:44:18 10° ESE daylight
05 Feb - 14:37:17 10° WSW 14:41:58 25° SSW 14:48:08 10° SE daylight
05 Feb - 16:43:33 10° SW 16:45:26 11° SSW 16:47:29 10° SSW daylight
06 Feb - 10:00:32 10° SSW 10:03:28 17° SSE 10:06:35 10° ESE daylight
06 Feb - 12:02:04 10° WSW 12:06:10 29° S 12:11:15 10° ESE daylight
06 Feb - 14:04:52 10° WSW 14:09:17 25° SSW 14:15:02 10° SE daylight
06 Feb - 16:10:27 10° SW 16:12:41 11° SSW 16:15:08 10° SSW daylight
07 Feb - 09:28:24 10° SSW 09:30:57 15° SSE 09:33:34 10° ESE daylight
07 Feb - 11:29:43 10° SW 11:33:37 28° S 11:38:16 10° ESE daylight
07 Feb - 13:32:28 10° WSW 13:36:39 25° SSW 13:42:00 10° SE daylight
07 Feb - 15:37:33 10° SW 15:39:56 12° SSW 15:42:36 10° S daylight
